When you browse on this site, cookies collect data to enhance your experience and personalize the content and advertising you see.
Visit our Privacy Policy to learn more. By continuing to use the site, you agree to this use of cookies and data.
  • In Hungary
  • List of Countries
  • For 7 days
  • Water Temperature
  • Satellite Maps
  • Weather Map
  • News
  • Weather Widgets
  • user-avatar
    Login

    Hourly Weather Orenburg

    Today, 12 December, Wednesday

    Time Temperature Precipitation Wind Pressure Humidity
    00:00 -11°C° 0 mm 4 mps 752 mmHg 78%
    01:00 -11°C° 0 mm 4 mps 752 mmHg 77%
    02:00 -11°C° 0 mm 4 mps 752 mmHg 77%
    03:00 -10°C° 0 mm 4 mps 752 mmHg 77%
    04:00 -10°C° 0 mm 4 mps 752 mmHg 77%
    05:00 -10°C° 0 mm 4 mps 752 mmHg 77%
    06:00 -10°C° 0 mm 4 mps 751 mmHg 77%
    07:00 -10°C° 0 mm 4 mps 751 mmHg 77%
    08:00 -10°C° 0 mm 4 mps 751 mmHg 77%
    09:00 -10°C° 0 mm 4 mps 751 mmHg 77%
    10:00 -10°C° 0 mm 4 mps 751 mmHg 77%
    11:00 -9°C° 0 mm 4 mps 751 mmHg 77%
    12:00 -9°C° 0 mm 4 mps 751 mmHg 77%
    13:00 -8°C° 0 mm 5 mps 751 mmHg 77%
    14:00 -8°C° 0 mm 4 mps 750 mmHg 78%
    15:00 -8°C° 0 mm 4 mps 750 mmHg 78%
    16:00 -9°C° 0 mm 4 mps 750 mmHg 79%
    17:00 -9°C° 0 mm 4 mps 750 mmHg 78%
    18:00 -9°C° 0 mm 4 mps 750 mmHg 78%
    19:00 -9°C° 0 mm 4 mps 750 mmHg 77%
    20:00 -9°C° 0 mm 4 mps 750 mmHg 77%
    21:00 -9°C° 0 mm 4 mps 750 mmHg 76%
    22:00 -9°C° 0 mm 4 mps 750 mmHg 76%
    23:00 -10°C° 0 mm 4 mps 750 mmHg 76%

    Tomorrow, 13 December, Thursday

    Time Temperature Precipitation Wind Pressure Humidity
    00:00 -10°C° 0 mm 4 mps 750 mmHg 77%
    01:00 -10°C° 0 mm 4 mps 750 mmHg 77%
    02:00 -9°C° 0 mm 4 mps 750 mmHg 78%
    03:00 -9°C° 0 mm 4 mps 750 mmHg 79%
    04:00 -9°C° 0 mm 4 mps 749 mmHg 79%
    05:00 -8°C° 0 mm 4 mps 749 mmHg 80%
    06:00 -8°C° 0 mm 5 mps 749 mmHg 80%
    07:00 -8°C° 0 mm 5 mps 749 mmHg 80%
    08:00 -8°C° 0 mm 5 mps 749 mmHg 81%
    09:00 -7°C° 0 mm 5 mps 749 mmHg 81%
    10:00 -7°C° 0 mm 5 mps 749 mmHg 81%
    11:00 -7°C° 0 mm 5 mps 749 mmHg 81%
    12:00 -6°C° 0 mm 5 mps 749 mmHg 81%
    13:00 -6°C° 0 mm 5 mps 749 mmHg 80%
    14:00 -6°C° 0 mm 5 mps 749 mmHg 81%
    15:00 -7°C° 0 mm 5 mps 749 mmHg 81%
    16:00 -7°C° 0 mm 5 mps 749 mmHg 81%
    17:00 -7°C° 0.1 mm 5 mps 749 mmHg 84%
    18:00 -7°C° 0.1 mm 5 mps 749 mmHg 86%
    19:00 -8°C° 0.1 mm 6 mps 749 mmHg 88%
    20:00 -8°C° 0.3 mm 6 mps 748 mmHg 89%
    21:00 -8°C° 0.3 mm 6 mps 748 mmHg 91%
    22:00 -8°C° 0.3 mm 7 mps 748 mmHg 92%
    23:00 -8°C° 0.3 mm 7 mps 748 mmHg 91%

    Day after tomorrow, 14 December, Friday

    Time Temperature Precipitation Wind Pressure Humidity
    00:00 -8°C° 0.3 mm 7 mps 748 mmHg 90%
    01:00 -8°C° 0.3 mm 7 mps 748 mmHg 89%
    02:00 -8°C° 0.1 mm 8 mps 748 mmHg 87%
    03:00 -8°C° 0.1 mm 8 mps 748 mmHg 85%
    04:00 -8°C° 0.1 mm 8 mps 747 mmHg 83%
    05:00 -7°C° 0.2 mm 8 mps 747 mmHg 84%
    06:00 -7°C° 0.2 mm 8 mps 747 mmHg 85%
    07:00 -7°C° 0.2 mm 8 mps 747 mmHg 86%
    08:00 -8°C° 0.5 mm 9 mps 746 mmHg 87%
    09:00 -8°C° 0.5 mm 9 mps 746 mmHg 89%
    10:00 -8°C° 0.5 mm 9 mps 746 mmHg 90%
    11:00 -8°C° 0.7 mm 9 mps 746 mmHg 91%
    12:00 -8°C° 0.7 mm 9 mps 746 mmHg 91%
    13:00 -6°C° 0.7 mm 9 mps 746 mmHg 91%
    14:00 -6°C° 0.5 mm 9 mps 746 mmHg 91%
    15:00 -8°C° 0.5 mm 9 mps 746 mmHg 91%
    16:00 -7°C° 0.5 mm 8 mps 746 mmHg 91%
    17:00 -7°C° 0.5 mm 8 mps 745 mmHg 91%
    18:00 -7°C° 0.5 mm 8 mps 745 mmHg 91%
    19:00 -7°C° 0.5 mm 8 mps 745 mmHg 92%
    20:00 -7°C° 0.3 mm 8 mps 745 mmHg 91%
    21:00 -7°C° 0.3 mm 8 mps 745 mmHg 90%
    22:00 -8°C° 0.3 mm 8 mps 745 mmHg 89%
    23:00 -8°C° 0.1 mm 8 mps 745 mmHg 89%

    15 December, Saturday

    Time Temperature Precipitation Wind Pressure Humidity
    00:00 -8°C° 0.1 mm 8 mps 745 mmHg 89%
    01:00 -8°C° 0.1 mm 7 mps 745 mmHg 89%
    02:00 -9°C° 0.1 mm 7 mps 745 mmHg 90%
    03:00 -9°C° 0.1 mm 7 mps 745 mmHg 90%
    04:00 -9°C° 0.1 mm 6 mps 745 mmHg 91%
    05:00 -9°C° 0.1 mm 6 mps 745 mmHg 91%
    06:00 -9°C° 0.1 mm 6 mps 745 mmHg 91%
    07:00 -9°C° 0.1 mm 6 mps 745 mmHg 92%
    08:00 -10°C° 0 mm 5 mps 745 mmHg 92%
    09:00 -10°C° 0 mm 5 mps 745 mmHg 92%
    10:00 -10°C° 0 mm 5 mps 746 mmHg 92%
    11:00 -10°C° 0 mm 5 mps 746 mmHg 92%
    12:00 -10°C° 0 mm 5 mps 746 mmHg 92%
    13:00 -9°C° 0 mm 4 mps 746 mmHg 92%
    14:00 -9°C° 0 mm 4 mps 746 mmHg 93%
    15:00 -9°C° 0 mm 4 mps 746 mmHg 93%
    16:00 -9°C° 0 mm 3 mps 747 mmHg 93%
    17:00 -9°C° 0 mm 3 mps 747 mmHg 93%
    18:00 -10°C° 0 mm 3 mps 747 mmHg 93%
    19:00 -12°C° 0 mm 3 mps 747 mmHg 94%
    20:00 -10°C° 0 mm 2 mps 748 mmHg 93%
    21:00 -12°C° 0 mm 2 mps 748 mmHg 93%
    22:00 -12°C° 0 mm 2 mps 748 mmHg 93%
    23:00 -13°C° 0 mm 2 mps 748 mmHg 93%

    16 December, Sunday

    Time Temperature Precipitation Wind Pressure Humidity
    00:00 -13°C° 0 mm 2 mps 748 mmHg 93%
    01:00 -13°C° 0 mm 2 mps 749 mmHg 94%
    02:00 -13°C° 0 mm 2 mps 749 mmHg 94%
    03:00 -14°C° 0 mm 2 mps 749 mmHg 95%
    04:00 -14°C° 0 mm 2 mps 749 mmHg 95%
    05:00 -14°C° 0 mm 2 mps 750 mmHg 95%
    06:00 -15°C° 0 mm 2 mps 750 mmHg 95%
    07:00 -15°C° 0 mm 2 mps 750 mmHg 95%
    08:00 -15°C° 0 mm 2 mps 751 mmHg 94%
    09:00 -15°C° 0 mm 2 mps 751 mmHg 93%
    10:00 -15°C° 0 mm 2 mps 751 mmHg 93%
    11:00 -15°C° 0 mm 2 mps 751 mmHg 93%
    12:00 -15°C° 0 mm 2 mps 752 mmHg 93%
    13:00 -14°C° 0 mm 2 mps 752 mmHg 93%
    14:00 -15°C° 0 mm 2 mps 752 mmHg 94%
    15:00 -16°C° 0 mm 2 mps 752 mmHg 94%
    16:00 -16°C° 0 mm 2 mps 753 mmHg 94%
    17:00 -17°C° 0 mm 2 mps 753 mmHg 94%
    18:00 -17°C° 0 mm 2 mps 753 mmHg 94%
    19:00 -17°C° 0 mm 2 mps 754 mmHg 94%
    20:00 -17°C° 0 mm 2 mps 754 mmHg 94%
    21:00 -15°C° 0 mm 1 mps 754 mmHg 94%
    22:00 -15°C° 0 mm 1 mps 755 mmHg 94%
    23:00 -15°C° 0 mm 1 mps 755 mmHg 93%

    17 December, Monday

    Time Temperature Precipitation Wind Pressure Humidity
    00:00 -15°C° 0 mm 1 mps 755 mmHg 93%
    01:00 -15°C° 0 mm 1 mps 755 mmHg 93%
    02:00 -15°C° 0 mm 1 mps 755 mmHg 93%
    03:00 -15°C° 0 mm 1 mps 755 mmHg 94%
    04:00 -15°C° 0 mm 1 mps 756 mmHg 94%
    05:00 -15°C° 0 mm 1 mps 756 mmHg 94%
    06:00 -15°C° 0 mm 1 mps 756 mmHg 94%
    07:00 -15°C° 0 mm 1 mps 756 mmHg 94%
    08:00 -15°C° 0 mm 1 mps 756 mmHg 94%
    09:00 -15°C° 0 mm 1 mps 756 mmHg 93%
    10:00 -14°C° 0 mm 1 mps 757 mmHg 93%
    11:00 -14°C° 0 mm 1 mps 757 mmHg 93%
    12:00 -13°C° 0 mm 1 mps 757 mmHg 92%
    13:00 -12°C° 0 mm 1 mps 757 mmHg 92%
    14:00 -13°C° 0 mm 1 mps 756 mmHg 93%
    15:00 -14°C° 0 mm 1 mps 756 mmHg 93%
    16:00 -14°C° 0 mm 1 mps 756 mmHg 93%
    17:00 -15°C° 0 mm 1 mps 757 mmHg 93%
    18:00 -15°C° 0 mm 1 mps 757 mmHg 94%
    19:00 -15°C° 0 mm 1 mps 757 mmHg 94%
    20:00 -15°C° 0 mm 1 mps 757 mmHg 94%
    21:00 -15°C° 0 mm 1 mps 757 mmHg 94%
    22:00 -15°C° 0 mm 1 mps 757 mmHg 94%
    23:00 -16°C° 0 mm 1 mps 757 mmHg 94%
    Show more